{"data":{"norad_id":49298,"epoch":"2026-09-19T22:24:50.826240Z","epoch_age_seconds":74697,"freshness":"FRESH","line1":"1 49298U 21090V   26262.93392160  .00000114  00000+0  24854-3 0  9996","line2":"2 49298  87.9138 255.5407 0002050  86.8466 273.2902 13.20770955242342","mean_motion":13.20770955,"eccentricity":0.000205,"inclination_deg":87.9138,"raan_deg":255.5407,"arg_perigee_deg":86.8466,"mean_anomaly_deg":273.2902,"bstar":0.00024854,"rev_number":24234,"period_min":109.02723099328,"perigee_km":1180.2268642292,"apogee_km":1183.3264288243,"semimajor_km":7559.9136465267,"source":"CELESTRAK","updated_at":"2026-09-20T09:00:44.672528Z"}}